User: anonymous   Login
Location: Oshawa
(43.9000°N, 78.8670°W)
Time: 12:12:29
(UTC-05:00)
Language:

Cosmos 1707 Rocket - Orbit

View from above orbital plane
View from above orbital plane
View from above satellite
View from above satellite

Ground track
Ground track

The orbit data is extracted from the following two-line orbital elements,

1 16327U 85113B   17016.55486869  .00000061  00000-0  45138-5 0  9996
2 16327  82.5328 234.1467 0020284 125.9163 261.8051 14.83336580679409
Epoch (UTC): 16 January 2017 13:19:00
Eccentricity: 0.0020284
inclination: 82.5328°
perigee height: 604 km
apogee height: 633 km
right ascension of ascending node: 234.1467°
argument of perigee: 125.9163°
revolutions per day: 14.83336580
mean anomaly at epoch: 261.8051°
orbit number at epoch: 67940

The dashed part of the orbit path shows where the satellite is in the earth's shadow,  

DLR